Celoron, NY

4:02 PM EDT on September 25, 2016 (GMT -0400)
Chautauqua County-Jamestown

Weather History for KJHW - October, 2011

Change the Weather History Date:

Wednesday, October 5, 2011

  Actual Average Record
Temperature  
Mean Temperature 54 °F -  
Max Temperature 64 °F 63 °F 80 °F (2007)
Min Temperature 44 °F 39 °F 22 °F (1987)
Degree Days  
Heating Degree Days 11    
Growing Degree Days 4 (Base 50)    
Moisture  
Dew Point 47 °F    
Average Humidity 80    
Maximum Humidity 100    
Minimum Humidity 55    
Precipitation  
Precipitation 0.00 in - - ()
Sea Level Pressure  
Sea Level Pressure 30.24 in    
Wind  
Wind Speed 6 mph (WNW)    
Max Wind Speed 13 mph    
Max Gust Speed -    
Visibility 8 miles    
Events      
Averages and records for this station are not official NWS values.
T = Trace of Precipitation, MM = Missing Value Source: NWS Daily Summary

Daily Weather History Graph

Daily Weather History Graph

Search for Another Location

Airport or City:

Trip Planner

Search our weather history database for the weather conditions in past years. The results will help you decide how hot, cold, wet, or windy it might be!

Date:

Astronomy

Oct. 05, 2011 Rise Set
Actual Time 7:18 AM EDT 6:52 PM EDT
Civil Twilight 6:50 AM EDT 7:20 PM EDT
Nautical Twilight 6:17 AM EDT 7:52 PM EDT
Astronomical Twilight 5:45 AM EDT 8:25 PM EDT
Moon 3:37 PM EDT (10/5) 12:56 AM EDT (10/5)
Length of Visible Light 12h 29m
Length of Day
11h 34m
Waxing Gibbous, 66% of the Moon is Illuminated
Oct 5
Waxing Gibbous
Oct 11
Full
Oct 19
Last Quarter
Oct 26
New
Nov 2
First Quarter

Hourly Weather History & Observations

Time (EDT) Temp. Windchill Dew Point Humidity Pressure Visibility Wind Dir Wind Speed Gust Speed Precip Events Conditions
12:15 AM 48.2 °F - 46.4 °F 93% 30.20 in 1.2 mi WSW 5.8 mph - N/A   Clear
12:35 AM 48.2 °F - 46.4 °F 93% 30.20 in 3.0 mi WSW 4.6 mph - N/A   Clear
12:55 AM 48.2 °F - 46.4 °F 93% 30.20 in 1.8 mi WSW 4.6 mph - N/A   Clear
1:15 AM 48.2 °F - 46.4 °F 93% 30.20 in 4.0 mi West 6.9 mph - N/A   Clear
1:35 AM 48.2 °F - 46.4 °F 93% 30.21 in 10.0 mi West 4.6 mph - N/A   Clear
1:55 AM 48.2 °F - 46.4 °F 93% 30.21 in 10.0 mi WSW 5.8 mph - N/A   Clear
2:15 AM 46.4 °F 42.9 °F 46.4 °F 100% 30.20 in 5.0 mi WSW 6.9 mph - N/A   Clear
2:35 AM 48.2 °F - 46.4 °F 93% 30.20 in 10.0 mi West 5.8 mph - N/A   Clear
2:55 AM 48.2 °F - 46.4 °F 93% 30.20 in 10.0 mi West 6.9 mph - N/A   Clear
3:15 AM 48.2 °F - 46.4 °F 93% 30.20 in 10.0 mi WNW 4.6 mph - N/A   Clear
3:35 AM 48.2 °F - 46.4 °F 93% 30.19 in 10.0 mi WNW 6.9 mph - N/A   Clear
3:55 AM 48.2 °F - 46.4 °F 93% 30.20 in 10.0 mi WNW 5.8 mph - N/A   Clear
4:15 AM 48.2 °F - 46.4 °F 93% 30.20 in 10.0 mi West 5.8 mph - N/A   Clear
4:35 AM 46.4 °F 42.9 °F 44.6 °F 93% 30.20 in 10.0 mi West 6.9 mph - N/A   Clear
4:55 AM 46.4 °F 44.3 °F 44.6 °F 93% 30.21 in 1.8 mi West 4.6 mph - N/A   Clear
5:15 AM 46.4 °F 44.3 °F 44.6 °F 93% 30.21 in 0.5 mi WSW 4.6 mph - N/A   Unknown
5:55 AM 44.6 °F 41.4 °F 42.8 °F 93% 30.22 in 0.2 mi WSW 5.8 mph - N/A   Mostly Cloudy
6:15 AM 44.6 °F 41.4 °F 42.8 °F 93% 30.22 in 0.2 mi WSW 5.8 mph - N/A   Overcast
6:35 AM 44.6 °F 41.4 °F 42.8 °F 93% 30.22 in 0.8 mi WSW 5.8 mph - N/A   Overcast
6:55 AM 44.6 °F 42.2 °F 42.8 °F 93% 30.23 in 0.5 mi WSW 4.6 mph - N/A   Overcast
7:15 AM 44.6 °F - 42.8 °F 93% 30.24 in 4.0 mi Calm Calm - N/A   Partly Cloudy
7:35 AM 44.6 °F - 44.6 °F 100% 30.24 in 4.0 mi Calm Calm - N/A   Clear
7:55 AM 44.6 °F 43.1 °F 42.8 °F 93% 30.24 in 0.2 mi SW 3.5 mph - N/A   Mostly Cloudy
8:15 AM 46.4 °F 45.2 °F 44.6 °F 93% 30.25 in 10.0 mi SW 3.5 mph - N/A   Clear
8:35 AM 46.4 °F - 46.4 °F 100% 30.25 in 10.0 mi Calm Calm - N/A   Clear
9:15 AM 50.0 °F - 48.2 °F 94% 30.26 in 10.0 mi SW 3.5 mph - N/A   Clear
9:35 AM 51.8 °F - 48.2 °F 88% 30.26 in 10.0 mi WSW 4.6 mph - N/A   Clear
9:55 AM 53.6 °F - 51.8 °F 94% 30.27 in 10.0 mi NNW 5.8 mph - N/A   Clear
10:15 AM 55.4 °F - 50.0 °F 82% 30.28 in 10.0 mi WNW 6.9 mph - N/A   Clear
10:35 AM 57.2 °F - 50.0 °F 77% 30.27 in 10.0 mi Calm Calm - N/A   Clear
10:55 AM 57.2 °F - 50.0 °F 77% 30.27 in 10.0 mi NNW 3.5 mph - N/A   Clear
11:15 AM 59.0 °F - 50.0 °F 72% 30.27 in 10.0 mi North 6.9 mph - N/A   Clear
11:35 AM 60.8 °F - 48.2 °F 63% 30.27 in 10.0 mi North 6.9 mph - N/A   Clear
11:55 AM 60.8 °F - 50.0 °F 68% 30.27 in 10.0 mi NNW 6.9 mph - N/A   Clear
12:15 PM 60.8 °F - 46.4 °F 59% 30.28 in 10.0 mi North 11.5 mph - N/A   Clear
12:35 PM 60.8 °F - 46.4 °F 59% 30.28 in 10.0 mi North 8.1 mph - N/A   Clear
12:55 PM 62.6 °F - 46.4 °F 55% 30.27 in 10.0 mi NNW 9.2 mph - N/A   Clear
1:15 PM 62.6 °F - 46.4 °F 55% 30.27 in 10.0 mi NNW 12.7 mph - N/A   Clear
1:35 PM 62.6 °F - 48.2 °F 59% 30.26 in 10.0 mi NNW 8.1 mph - N/A   Clear
1:55 PM 62.6 °F - 46.4 °F 55% 30.26 in 10.0 mi NNW 9.2 mph - N/A   Clear
2:15 PM 62.6 °F - 48.2 °F 59% 30.26 in 10.0 mi NNW 8.1 mph - N/A   Clear
2:35 PM 64.4 °F - 48.2 °F 56% 30.25 in 10.0 mi North 9.2 mph - N/A   Clear
2:55 PM 64.4 °F - 48.2 °F 56% 30.26 in 10.0 mi North 6.9 mph - N/A   Clear
3:35 PM 62.6 °F - 48.2 °F 59% 30.26 in 10.0 mi North 8.1 mph - N/A   Clear
3:55 PM 62.6 °F - 46.4 °F 55% 30.26 in 10.0 mi NNW 9.2 mph - N/A   Clear
4:15 PM 62.6 °F - 46.4 °F 55% 30.26 in 10.0 mi NNW 9.2 mph - N/A   Clear
4:35 PM 62.6 °F - 46.4 °F 55% 30.26 in 10.0 mi North 9.2 mph - N/A   Clear
5:15 PM 60.8 °F - 46.4 °F 59% 30.26 in 10.0 mi NNW 9.2 mph - N/A   Clear
7:15 PM 55.4 °F - 48.2 °F 77% 30.28 in 10.0 mi North 6.9 mph - N/A   Clear
7:55 PM 53.6 °F - 48.2 °F 82% 30.29 in 10.0 mi North 6.9 mph - N/A   Clear
8:15 PM 53.6 °F - 46.4 °F 77% 30.30 in 10.0 mi North 6.9 mph - N/A   Clear
9:15 PM 51.8 °F - 44.6 °F 76% 30.31 in 10.0 mi NNE 5.8 mph - N/A   Clear
9:35 PM 51.8 °F - 44.6 °F 76% 30.31 in 10.0 mi NNE 4.6 mph - N/A   Clear
9:55 PM 51.8 °F - 42.8 °F 71% 30.32 in 10.0 mi NE 8.1 mph - N/A   Clear
10:15 PM 50.0 °F - 41.0 °F 71% 30.32 in 10.0 mi ENE 6.9 mph - N/A   Clear
10:35 PM 48.2 °F - 41.0 °F 76% 30.32 in 10.0 mi NE 8.1 mph - N/A   Clear
10:55 PM 48.2 °F - 39.2 °F 71% 30.33 in 10.0 mi ENE 8.1 mph - N/A   Clear
11:15 PM 48.2 °F - 39.2 °F 71% 30.33 in 10.0 mi ENE 8.1 mph - N/A   Clear
11:35 PM 46.4 °F 43.5 °F 39.2 °F 76% 30.33 in 10.0 mi ENE 5.8 mph - N/A   Clear
11:55 PM 46.4 °F - 39.2 °F 76% 30.34 in 10.0 mi Calm Calm - N/A   Clear